DELTA 1 DEB

Satellite information

Favourite Embed

Satellite Type and Status

DEBRISIN ORBIT

Key statistics

Satellite DELTA 1 DEB at a glance.

Uptime

18814

Days in orbit

Revolutions

≈ 12.4

Per day

Orbit

SSO

Sun Synchronous Orbit

Inclination

101.4

Latest

Satellite identification and parameters

Extended collection of information and parameters for DELTA 1 DEB.

Object identification

Identified? True

Debris? True

Object name: DELTA 1 DEB

International designator: 1973-086HJ

Object number (NORAD): 39096

Object ID (CCSDS): 39096

Country: UNITED STATES OF AMERICA (US)

Current information (Y/N): Y

RCS size: SMALL

Orbital parameters

Period: 116.319 minutes

Inclination: 101.3763 deg

SMA: 7893.325 km

Apoapsis: 1580.827 km

Periapsis: 1449.553 km

RAAN: 64.3162 deg

Eccentricy: 0.0083155

Argument of periapsis: 46.9084 deg

Mean anomaly: 313.8902 deg

Mean motion: 12.37977591 rev/day

Mean motion (dot): 0.00000455 rev/day2

B* drag term: 0.0037636 1/REarth

Two-line elements (TLE)

Creation date: May 10, 2025, 5:27 p.m.

Reference frame: TEME

Reference center: EARTH

Epoch: May 10, 2025, 6:58 a.m. UTC

TLE line 0: 0 DELTA 1 DEB

TLE line 1: 1 39096U 73086HJ 25130.29083278 .00000455 00000-0 37636-2 0 9992

TLE line 2: 2 39096 101.3763 64.3162 0083155 46.9084 313.8902 12.37977591507587

Live tracking on map

Real-time ground track for satellite DELTA 1 DEB.

In-orbit conjunctions

A list of the most updated potential collisions computed for object DELTA 1 DEB.

Target Orbit TCA Probability of collision Miss distance Type
COSMOS 875 LEO 2025-01-14 05:07:34 0.0001457031 394.0 (m) PAYLOAD
COSMOS 1130 LEO 2024-11-13 14:11:24 0.0002552777 221.0 (m) PAYLOAD

Associated space launch

Meteorological satellite using radiometric imaging

DELTA 1 DEB was lifted into orbit during the mission ‘Delta 0300 | NOAA 3’, on board a Delta 0300 space rocket.

The launch took place on Nov. 6, 1973, 5:02 p.m. from Space Launch Complex 2W.

For more information about the launch, click the button.

Launch to space Delta 0300 | NOAA 3
Delta 0300 | NOAA 3

Agency: N/A

Status: Launch Successful

Launch date: Nov. 6, 1973, 5:02 p.m. UTC

Rocket: Delta 0300

Launch pad: Space Launch Complex 2W

Location: Vandenberg SFB, CA, USA

...

Latest news about this satellite

There are no fresh news available about this satellite. Check back as we update our databases every day.


Newsletter sign-up

Weekly statistics, charts and insights to help you stay on top of the space industry.